Location: Newark
(12.1500°S, 17.6667°E)
Time: 11:19:17
(UTC+00:00)

ISS - Visible Passes

Search period start: 19 September 2019 00:00
Search period end: 29 September 2019 00:00
Orbit: 411 x 421 km, 51.6° (Epoch: 19 September)

Date Brightness Start Highest point End Pass type
(mag) Time Alt. Az. Time Alt. Az. Time Alt. Az.
19 Sep -0.7 03:42:57 10° NNE 03:44:53 15° NE 03:46:49 10° E visible
21 Sep -3.6 03:41:49 15° NNW 03:44:32 72° NE 03:47:55 10° SE visible
22 Sep -1.7 02:56:34 27° ENE 02:56:34 27° ENE 02:59:07 10° ESE visible
23 Sep -2.4 03:44:04 22° WSW 03:44:17 22° SW 03:46:59 10° S visible
24 Sep -1.1 02:58:22 15° SSE 02:58:22 15° SSE 02:59:05 10° SSE visible
